CW2098 Weather Reports


Display with metric or nautical units.
time (UTC)temp
F
wind
direction
speed
MPH
gust
MPH
rain 1hr
in
rain 24hr
in
rain mn
in
humidity
%
barometer
mb
20260905140107 86 240 1.0 4.0 0.00 0.14 0.00 81 1009.5
20260905135108 86 1 2.0 4.0 0.00 0.14 0.00 83 1008.5
20260905134055 85 32 2.0 4.0 0.00 0.14 0.00 85 1008.0
20260905133108 85 200 1.0 4.0 0.00 0.14 0.00 85 1007.2
20260905132052 84 341 1.0 5.0 0.00 0.14 0.00 88 1004.7
20260905131052 83 226 1.0 3.0 0.00 0.14 0.00 90 1003.4
20260905130053 82 357 1.0 4.0 0.00 0.14 0.00 91 1002.4
20260905125052 81 276 2.0 4.0 0.00 0.14 0.00 93 1002.4
20260905124051 80 197 1.0 6.0 0.00 0.14 0.00 94 1002.2
20260905123052 80 208 1.0 4.0 0.00 0.14 0.00 95 1002.0
20260905122051 79 0 0.0 2.0 0.00 0.14 0.00 96 1001.4
20260905121052 78 216 0.0 2.0 0.00 0.14 0.00 96 999.7
20260905120105 78 351 0.0 1.0 0.00 0.14 0.00 96 999.0
20260905115053 77 250 0.0 2.0 0.00 0.14 0.00 96 998.6
20260905114039 77 0 1.0 3.0 0.00 0.14 0.00 96 998.4
20260905113024 77 251 1.0 3.0 0.00 0.14 0.00 96 998.1
20260905112507 77 0 1.0 3.0 0.00 0.14 0.00 96 998.0
20260905111024 77 0 0.0 2.0 0.00 0.14 0.00 96 998.0
20260905110025 77 355 1.0 2.0 0.00 0.14 0.00 96 997.9
20260905105010 77 287 1.0 3.0 0.00 0.14 0.00 96 998.0
20260905104009 78 199 1.0 2.0 0.00 0.14 0.00 96 997.8
20260905103009 78 0 1.0 3.0 0.00 0.14 0.00 96 997.7
20260905100954 77 186 2.0 4.0 0.00 0.14 0.00 96 997.4
20260905100439 77 189 2.0 4.0 0.00 0.14 0.00 96 997.6
20260905095426 77 214 2.0 4.0 0.00 0.14 0.00 96 997.4
20260905093940 77 253 2.0 4.0 0.00 0.14 0.00 96 997.6
20260905092925 77 188 2.0 3.0 0.00 0.14 0.00 96 997.6
20260905091925 77 208 2.0 4.0 0.00 0.14 0.00 96 997.7
20260905085911 77 210 1.0 3.0 0.00 0.14 0.00 96 997.5
20260905085351 77 203 1.0 3.0 0.00 0.14 0.00 96 997.4
20260905083907 77 222 1.0 3.0 0.00 0.14 0.00 95 997.2
20260905082908 77 0 1.0 3.0 0.00 0.14 0.00 95 997.2
20260905081908 77 190 1.0 3.0 0.00 0.14 0.00 95 996.9
20260905080908 77 0 0.0 2.0 0.00 0.14 0.00 95 996.7
20260905075920 77 0 0.0 2.0 0.00 0.14 0.00 95 996.9
20260905074907 77 244 0.0 2.0 0.00 0.14 0.00 95 996.9
20260905073906 77 295 2.0 5.0 0.00 0.14 0.00 95 997.2
20260905072915 77 280 1.0 5.0 0.00 0.14 0.00 95 997.2
20260905071905 77 204 2.0 5.0 0.00 0.14 0.00 95 997.3
20260905070903 77 189 1.0 4.0 0.00 0.14 0.00 95 997.4
20260905070343 77 202 2.0 5.0 0.00 0.14 0.00 95 997.6
20260905064900 77 239 1.0 4.0 0.00 0.14 0.00 94 997.4
20260905063900 77 107 2.0 4.0 0.00 0.14 0.00 94 997.5
20260905062900 77 302 1.0 3.0 0.00 0.14 0.00 94 997.6
20260905061900 77 210 1.0 4.0 0.00 0.14 0.00 94 997.7
20260905061339 77 191 2.0 6.0 0.00 0.14 0.00 94 997.8
20260905055901 77 221 2.0 5.0 0.00 0.14 0.00 94 997.9
20260905053914 77 182 1.0 3.0 0.00 0.14 0.00 94 997.8
20260905053346 77 137 2.0 4.0 0.00 0.14 0.00 94 998.0
20260905052338 77 149 2.0 5.0 0.00 0.14 0.00 94 998.0
20260905050858 77 174 2.0 5.0 0.00 0.14 0.00 94 998.4
20260905045859 77 105 1.0 3.0 0.00 0.14 0.00 94 998.4
20260905044858 77 0 2.0 5.0 0.00 0.14 0.00 93 998.5
20260905043858 77 184 1.0 3.0 0.00 0.14 0.00 93 998.4
20260905042859 78 181 1.0 4.0 0.00 0.14 0.00 93 998.5
20260905041857 78 161 1.0 4.0 0.00 0.14 0.00 93 999.2
20260905040858 78 161 1.0 4.0 0.00 0.14 0.00 93 999.0
20260905035858 78 95 2.0 6.0 0.00 0.14 0.14 93 998.9
20260905034857 78 77 2.0 4.0 0.00 0.14 0.14 92 998.9
20260905033858 79 215 1.0 4.0 0.00 0.14 0.14 92 999.1
20260905032857 79 234 2.0 4.0 0.00 0.14 0.14 92 999.1
20260905031858 79 213 2.0 7.0 0.00 0.14 0.14 92 999.2
20260905030858 79 226 2.0 5.0 0.00 0.14 0.14 91 999.9
20260905025858 79 208 2.0 5.0 0.00 0.14 0.14 91 999.9
20260905024854 79 209 1.0 4.0 0.00 0.14 0.14 92 999.7
20260905023854 78 218 2.0 4.0 0.00 0.14 0.14 92 999.9
20260905022856 78 194 2.0 5.0 0.00 0.14 0.14 92 1000.2
20260905021854 78 206 3.0 6.0 0.00 0.14 0.14 92 1000.4
20260905020855 78 201 2.0 5.0 0.00 0.14 0.14 92 1000.2
20260905020333 79 187 3.0 8.0 0.00 0.14 0.14 93 999.9
20260905014855 80 154 3.0 6.0 0.00 0.14 0.14 93 1000.2
20260905013855 80 199 2.0 6.0 0.00 0.14 0.14 93 1000.3
20260905012855 81 0 0.0 1.0 0.00 0.14 0.14 93 1000.3
20260905011855 81 0 0.0 1.0 0.00 0.14 0.14 93 1000.2
20260905010855 81 0 0.0 0.0 0.00 0.14 0.14 93 999.9
20260905005852 81 0 0.0 2.0 0.00 0.14 0.14 93 999.8
20260905005330 81 69 1.0 2.0 0.00 0.14 0.14 93 999.7
20260905003852 81 75 1.0 2.0 0.00 0.14 0.14 92 999.6
20260905002901 80 50 1.0 2.0 0.00 0.14 0.14 92 999.4
20260905002345 81 0 1.0 2.0 0.00 0.14 0.14 91 999.6
20260905000850 81 77 2.0 3.0 0.00 0.14 0.14 91 999.7
20260904235850 81 89 2.0 3.0 0.00 0.14 0.14 91 999.7
20260904234850 81 179 1.0 2.0 0.00 0.14 0.14 90 999.3
20260904233850 81 48 1.0 3.0 0.00 0.14 0.14 90 999.5
20260904232852 81 131 1.0 3.0 0.00 0.14 0.14 90 1000.0
20260904231850 82 359 1.0 3.0 0.00 0.14 0.14 90 1000.6
20260904230850 82 7 1.0 4.0 0.00 0.14 0.14 90 1000.9
20260904225848 82 310 1.0 4.0 0.00 0.14 0.14 90 1000.8
20260904224849 83 201 2.0 5.0 0.00 0.14 0.14 89 1001.1
20260904223847 83 189 2.0 6.0 0.00 0.14 0.14 90 1001.1
20260904222844 83 137 1.0 4.0 0.00 0.14 0.14 89 1001.0
20260904222321 83 110 2.0 3.0 0.00 0.14 0.14 89 1001.3
20260904220845 83 97 2.0 6.0 0.00 0.14 0.14 89 1001.8
20260904215845 83 149 3.0 9.0 0.00 0.14 0.14 89 1001.8
20260904214843 84 44 3.0 7.0 0.00 0.14 0.14 89 1001.9
20260904213840 84 86 4.0 7.0 0.00 0.14 0.14 88 1002.3
20260904212840 84 82 3.0 6.0 0.00 0.14 0.14 88 1002.6
20260904211841 84 122 4.0 9.0 0.00 0.14 0.14 88 1002.5
20260904211320 84 85 3.0 6.0 0.00 0.14 0.14 88 1002.6
20260904205840 83 38 3.0 7.0 0.01 0.14 0.14 88 1002.7
20260904204842 83 116 5.0 9.0 0.01 0.14 0.14 88 1002.2
20260904203841 83 113 5.0 10.0 0.01 0.14 0.14 88 1002.0
20260904202840 83 75 4.0 9.0 0.01 0.14 0.14 90 1002.6
20260904201839 83 121 4.0 8.0 0.01 0.14 0.14 91 1000.9
20260904201325 83 77 4.0 8.0 0.00 0.13 0.13 92 1000.8
20260904195840 83 75 3.0 8.0 0.03 0.13 0.13 92 1001.2
20260904194839 83 105 3.0 6.0 0.03 0.13 0.13 92 1001.8
20260904194328 83 64 3.0 5.0 0.03 0.13 0.13 92 1002.0
20260904192839 82 42 3.0 6.0 0.04 0.13 0.13 92 1000.9
20260904191837 82 45 3.0 5.0 0.12 0.13 0.13 92 1000.7
20260904190837 82 55 1.0 3.0 0.13 0.13 0.13 92 1000.2
20260904185836 82 65 1.0 4.0 0.10 0.10 0.10 91 1000.2
20260904184835 83 171 4.0 10.0 0.10 0.10 0.10 91 1000.4
20260904183836 83 64 5.0 10.0 0.10 0.10 0.10 90 999.8
20260904182836 84 58 6.0 13.0 0.09 0.09 0.09 88 998.7
20260904181836 87 78 6.0 13.0 0.01 0.01 0.01 79 1002.6
20260904181324 87 76 7.0 13.0 0.00 0.00 0.00 78 1009.1
20260904175832 87 55 6.0 11.0 0.00 0.00 0.00 78 1006.9
20260904174832 87 61 5.0 10.0 0.00 0.00 0.00 78 1007.7
20260904173830 86 102 5.0 10.0 0.00 0.00 0.00 79 1011.9
20260904172830 86 93 5.0 10.0 0.00 0.00 0.00 82 1003.1
20260904171829 86 118 5.0 9.0 0.00 0.00 0.00 82 1003.2
20260904170830 86 83 4.0 8.0 0.00 0.00 0.00 82 1003.8
20260904165830 87 58 4.0 7.0 0.00 0.00 0.00 80 1003.4
20260904164830 87 25 4.0 7.0 0.00 0.00 0.00 79 1005.1
20260904163828 87 46 4.0 7.0 0.00 0.00 0.00 80 1007.5
20260904162828 88 51 3.0 8.0 0.00 0.00 0.00 79 1013.2
20260904160825 89 48 2.0 4.0 0.00 0.00 0.00 72 1010.5
20260904155825 88 38 2.0 6.0 0.00 0.00 0.00 73 1010.0
20260904154825 88 139 2.0 6.0 0.00 0.00 0.00 73 1010.1
20260904153825 87 189 3.0 8.0 0.00 0.00 0.00 75 1009.4
20260904153310 87 136 2.0 5.0 0.00 0.00 0.00 75 1009.9
20260904151826 87 103 2.0 5.0 0.00 0.00 0.00 75 1009.6
20260904150825 87 0 3.0 6.0 0.00 0.00 0.00 76 1008.3
20260904145822 86 199 3.0 7.0 0.00 0.00 0.00 77 1007.8
20260904144823 87 171 4.0 9.0 0.00 0.00 0.00 76 1008.5
20260904143824 86 166 3.0 5.0 0.00 0.00 0.00 77 1009.4
20260904142823 86 225 2.0 5.0 0.00 0.00 0.00 78 1007.0
20260904141823 86 197 3.0 7.0 0.00 0.00 0.00 78 1006.6